Погода Котельниково

Погода Котельниково : погода сейчас, прогноз погоды и архив. Всё, что Вы хотите узнать о погоде Котельниково!

Поиск расширенной информации на нашем сайте:

Другие новости

Новости СМИ2

Главная страница сайта

Новости сайта

02.10.2013

Напоминаем, что на нашем новом сайте вы можете получить высокодетализированные прогнозы погоды по пунктам России, СНГ и мира (включающие важные для авиации метеовеличины, такие как направление и скорость ветра, видимость, явления погоды, количество и форма облачности, нижняя и верхняя граница облачности), а также ознакомиться с разнообразными материалами по авиационной метеорологии и подборкой полезных ссылок на эту тему.

Сайт Метеоцентр.Азия посвящён разработке технологий оптимизации авиаметеорологического обслуживания, включая проектирование и перспективное создание нескольких автоматизированных авиаметеорологических систем:
- система выпуска высокодетальных прогностических карт явлений погоды для нижнего воздушного пространства по России и ближнему зарубежью;
- система верификации прогнозов TAF (выпускаемых синоптиками официальных АМСГ РФ и ближнего зарубежья) и AUTOTAF (выпускаемых сайтом Метеоцентр.Азия) - выявление ошибок, онлайн-сопоставление с фактической погодой METAR, автоматическое внесение коррективов в прогнозы при резком отклонении фактической погоды от прогноза, подсчёт оправдываемости прогнозов по элементам и в целом;
- система обработки, анализа и отображения авиаметеорологической информации для применения провайдерами метеорологической информации.


Погода Котельниково - сегодня

Время (UTC), дата Ветер
(°,м/с) 
Видим.   Явления Облачность Т
(°С)
Тd
(°С)
f(%) Тe
(°С)
Pmin
(гПа)
dP
(гПа)
Po
(мм)
O2
(г/м3)
Тmin Tmax R s Состояние
почвы
18 22.05.17 350 (С) 10 км    10/10 600 м 
[Sc diur, vesp]
+13.4 +9.3 76 +13  1010.2  1.8  753  288           
21 22.05.17 360 (С) 10 км    ясно 
+10.6 +8.6 87 +12  1011.3  754  291           
00 23.05.17 350 (С) 10 км    ясно 
+10.5 +7.8 83 +11  1011.6  0.4  754  291           
03 23.05.17 340 (С) 10 км    4/4 600 м 
[Sc]
+10.4 +8.1 86 +11  1012.9  1.3  755  292  +8.7        сухая 
06 23.05.17 350 (С) 10 км    4/4 600 м 
[Cu hum]
+15.9 +2.8 41 +16  1014.1  1.3  756  288           
09 23.05.17 330 (СЗ) 10 км    8/0 средняя 
[Ac trans]
+17.4 +0 31 +17  1015.2  757  287           
12 23.05.17 330 (СЗ) 10 км    8/0 средняя 
[Ac trans]
+18.3 +1.6 33 +19  1015.2  0.1  757  286           
15 23.05.17 330 (СЗ) 10 км    5/0 средняя 
[Ac trans]
+17.5 +0.3 31 +18  1015.5  0.2  757  287    +18.5       
18 23.05.17 350 (С) 10 км    5/0 средняя 
[Ac trans]
+12.9 +2.1 48 +13  1017.6  759  292           
21 23.05.17 100 (В) 10 км    ясно 
+9.4 +2.8 63 +10  1018.5  0.8  759  295           
00 24.05.17 160 (Ю) 10 км    ясно 
+7.3 +4.2 81 +8  1019.1  0.5  760  298           
03 24.05.17 060 (СВ) 10 км    ясно 
+7.8 +3.4 74 +9  1019.9  0.9  761  297  +5.1        сухая 
06 24.05.17 090 (В) 10 км    4/0 средняя 
[Ac trans]
+17.3 +0.9 33 +18  1020.2  0.5  761  288           
09 24.05.17 090 (В) 10 км    4/0 средняя 
[Ac trans]
+19.9 -0.4 26 +21  1019.7  -0.5  761  286           
12 24.05.17 080 (В) 10 км    8/0 средняя 
[Ac trans]
+20.7 +0.2 25 +21  1018.9  -0.8  760  285           
15 24.05.17 150 (ЮВ) 10 км    8/0 средняя 
[Ac trans]
+18.9 +0.6 29 +20  1019  760  286    +21       
18 24.05.17 170 (Ю) 10 км    6/6 600 м 
[Sc diur, vesp]
+14.7 +6.4 57 +15  1020.2  1.1  761  290           
21 24.05.17 250 (З) 4{11}  10 км    10/10 600 м 
[Sc diur, vesp]
+13 +6.8 66 +13  1020.7  0.4  761  292           
00 25.05.17 230 (ЮЗ) 10 км    10/10 600 м 
[Sc diur, vesp]
+12 +7.1 72 +12  1020.5  -0.2  761  293           
03 25.05.17 220 (ЮЗ) 10 км    10/10 600 м 
[Sc diur, vesp]
+11.7 +7.6 76 +13  1021  0.5  761  293  +11.6        сухая 
06 25.05.17 300 (СЗ) 10 км    10/10 600 м 
[Sc diur, vesp]
+14.4 +9.1 70 +15  1020.9  0.1  761  290           
09 25.05.17 330 (СЗ) 10 км    9/9 600 м 
[Cu med, cong]
+18.3 +6.9 47 +19  1019.9  -0.9  761  286           
12 25.05.17 350 (С) 10 км    9/9 600 м кучево-дожд. 
[Cb calv]
+20 +4 35 +20  1018.9  -0.9  760  285           
15 25.05.17 330 (СЗ) 10 км    9/9 600 м кучево-дожд. 
[Cb calv]
+19.2 +2 32 +20  1018.3  -0.6  759  286    +21.4       
18 25.05.17 310 (СЗ) 10 км    8/8 600 м 
[Sc diur, vesp]
+14.8 +6.8 59 +16  1018.6  0.2  760  289           
Время (UTC), дата Ветер
(°,м/с) 
Видим.   Явления Облачность Т
(°С)
Тd
(°С)
f(%) Тe
(°С)
Pmin
(гПа)
dP
(гПа)
Po
(мм)
O2
(г/м3)
Тmin Tmax R s Состояние
почвы

Для получения пояснительной информации подведите курсор к названию столбца.

ПОГОДА Котельниково - архив

Всё, что Вы хотите узнать о погоде Котельниково - удобно и подробно!

Выберите нужную дату (начиная с 1 января 2015* года) и нажмите кнопку "Найти".
Будут отображены архивные сводки погоды по пункту Котельниково, начиная с указанной даты.


Отображать данные в формате CSV (для использования в таблицах Excel)


Внимание! Наш архив погоды предназначен исключительно для личного некоммерческого использования в познавательных целях. Если Вам необходимы официальные справки о состоянии погоды (для производственных, юридических, коммерческих и т.п. целей), обращайтесь в органы Росгидромета.

*Примечание: данная дата относится к архиву по метеостанциям СССР (Россия, СНГ, Балтия).
Архив по метеостанциям Зарубежной Европы и Азии (кроме Китая) хранится 10 дней, по другим регионам земного шара (Китай, Африка, Америка, Австралия, Океания) - 1 день.

Котельниково - район местоположения метеостанции


Название, широта, долгота, высота метеостанции:
Котельниково 47.6°ш. 43.2°д. 49 м над ур. моря [Российская Федерация]

Дополнительная информация

В oтличие oт бoльшинства пoгoдных сайтoв мы публикуем пoдрoбную метеoинфoрмацию в детальнoм прoфессиoнальнoм фoрмате.

Характеристики температуры и влажнoсти вoздуха измеряются на высoте 2 м в тени вдали oт зданий и деревьев.
Скoрoсть ветра измеряется на высoте 10 м (на урoвне рoста челoвека скoрoсть ветра ниже в 1.5-2 раза). Если метеoстанция нахoдится в гoрoде или в лесу, тo скoрoсть ветра занижена на 2-4 м/с пo сравнению с oткрытым местoм. Скoрoсть ветра над акватoриями крупных рек и oзёр, а также на вершинах хoлмoв на 2-5 м/с выше, чем в oбычных услoвиях.
Атмoсфернoе давление в разных тoчках местнoсти мoжет значительнo oтличаться oт давления на метеoстанции, в зависимoсти oт услoвий рельефа (при пoдъёме на 10 м давление пoнижается примернo на 1 мм рт.ст.).